Weather History for Rome, OR

Change the Weather History Date:

Sunday, November 13, 2011

  Actual Average Record
Temperature  
Mean Temperature 45 °F 38 °F  
Max Temperature 54 °F 50 °F 68 °F (1999)
Min Temperature 35 °F 25 °F 10 °F (1978)
Degree Days  
Heating Degree Days 20 28  
Month to date heating degree days 384 327  
Since 1 July heating degree days 935 1084  
Cooling Degree Days 0 0  
Month to date cooling degree days 0 0  
Year to date cooling degree days 430 507  
Moisture  
Dew Point 23 °F    
Average Humidity 50    
Maximum Humidity 76    
Minimum Humidity 24    
Precipitation  
Precipitation 0.00 in 0.01 in 0.50 in (1958)
Month to date precipitation 0.59 0.31  
Year to date precipitation 10.28 7.78  
Sea Level Pressure  
Sea Level Pressure 29.84 in    
Wind  
Wind Speed 13 mph (SSW)    
Max Wind Speed 21 mph    
Max Gust Speed 32 mph    
T = Trace of Precipitation, MM = Missing Value Source: NWS Daily Summary

Daily Weather History Graph

Daily Weather History Graph

Search for Another Location

Airport:

Trip Planner

Search our weather history database for the weather conditions in past years. The results will help you decide how hot, cold, wet, or windy it might be!

Date:

Astronomy

Nov. 13, 2011 Rise Set
Actual Time 6:40 AM PST 4:30 PM PST
Civil Twilight 6:09 AM PST 5:01 PM PST
Nautical Twilight 5:35 AM PST 5:35 PM PST
Astronomical Twilight 5:02 AM PST 6:08 PM PST
Moon 6:41 PM PST (11/13) 9:18 AM PST (11/13)
Length of Visible Light 10h 51m
Length of Day
9h 50m
Waning Gibbous, 92% of the Moon is Illuminated
Nov 13
Waning Gibbous
Nov 18
Last Quarter
Nov 24
New
Dec 2
First Quarter
Dec 10
Full

Hourly Weather History & Observations

Time (PST) Temp. Windchill Dew Point Humidity Pressure Visibility Wind Dir Wind Speed Gust Speed Precip Events Conditions
12:52 AM 37.0 °F 34.5 °F 30.9 °F 79% 29.82 in - ENE 3.5 mph - N/A   Unknown
1:52 AM 35.1 °F 28.6 °F 28.9 °F 78% 29.82 in - South 8.1 mph - N/A   Unknown
2:52 AM 39.0 °F 31.8 °F 27.0 °F 62% 29.78 in - SW 11.5 mph - N/A   Unknown
3:52 AM 39.0 °F 32.3 °F 27.0 °F 62% 29.80 in - South 10.4 mph - N/A   Unknown
4:52 AM 39.0 °F 31.8 °F 27.0 °F 62% 29.81 in - SSW 11.5 mph - N/A   Unknown
5:52 AM 37.0 °F 32.4 °F 26.1 °F 65% 29.84 in - SW 5.8 mph - N/A   Unknown
6:52 AM 39.9 °F 31.8 °F 26.1 °F 58% 29.84 in - SSW 15.0 mph 20.7 mph N/A   Unknown
7:52 AM 44.1 °F 36.5 °F 26.1 °F 49% 29.85 in - SSW 17.3 mph 25.3 mph N/A   Unknown
8:52 AM 45.0 °F 36.9 °F 25.0 °F 46% 29.84 in - SW 20.7 mph 31.1 mph N/A   Unknown
9:52 AM 46.9 °F - 23.0 °F 39% 29.87 in - SW 19.6 mph 26.5 mph N/A   Unknown
10:52 AM 50.0 °F - 21.0 °F 32% 29.88 in - SW 12.7 mph 24.2 mph N/A   Unknown
11:52 AM 51.1 °F - 19.9 °F 29% 29.87 in - SW 17.3 mph - N/A   Unknown
12:52 PM 52.0 °F - 18.0 °F 26% 29.86 in - SW 13.8 mph - N/A   Unknown
1:52 PM 53.1 °F - 18.0 °F 25% 29.86 in - SW 19.6 mph 25.3 mph N/A   Unknown
2:52 PM 53.1 °F - 18.0 °F 25% 29.84 in - South 12.7 mph - N/A   Unknown
3:52 PM 50.0 °F - 18.0 °F 28% 29.84 in - SW 12.7 mph - N/A   Unknown
4:52 PM 44.1 °F 39.5 °F 19.9 °F 38% 29.85 in - SSE 8.1 mph - N/A   Unknown
5:52 PM 48.9 °F - 17.1 °F 28% 29.86 in - South 15.0 mph 24.2 mph N/A   Unknown
6:52 PM 48.0 °F - 19.9 °F 33% 29.85 in - SSW 15.0 mph - N/A   Unknown
11:52 PM 39.0 °F 33.4 °F 16.0 °F 39% 29.85 in - West 8.1 mph - N/A   Unknown